Tracking 30743 objects as of 20-Jun-2025
HD Live streaming from Space Station
objects crossing your sky now

SS 1

Track SS 1 now!
10-day predictions
SS 1 is classified as:


NORAD ID: 10529
Int'l Code: 1977-112D
Perigee: 532.0 km
Apogee: 1,342.2 km
Inclination: 63.3 °
Period: 103.6 minutes
Semi major axis: 7308 km
RCS: Unknown
Launch date: December 8, 1977
Source: United States (US)
Launch site: AIR FORCE WESTERN TEST RANGE (AFWTR)
Your satellite tracking list
Your tracking list is empty




NASA's NSSDC Master Catalog

Two Line Element Set (TLE):
1 10529U 77112D   25170.57963220  .00001316  00000-0  33550-3 0  9994
2 10529  63.3344 289.6411 0554340 157.2799 205.3849 13.89614493301771
Source of the keplerian elements: McCants